TimeEDT,TemperatureF,Dew PointF,Humidity,Sea Level PressureIn,VisibilityMPH,Wind Direction,Wind SpeedMPH,Gust SpeedMPH,PrecipitationIn,Events,Conditions,WindDirDegrees,DateUTC
12:50 AM,60.8,59.0,94,29.90,10.0,ESE,10.4,-,N/A,,Scattered Clouds,110,2013-10-07 04:50:00
12:53 AM,61.0,59.0,93,29.90,10.0,ESE,9.2,-,N/A,,Mostly Cloudy,110,2013-10-07 04:53:00
1:53 AM,61.0,59.0,93,29.89,10.0,ESE,8.1,-,N/A,,Clear,110,2013-10-07 05:53:00
2:53 AM,61.0,59.0,93,29.87,10.0,SE,9.2,-,N/A,,Clear,130,2013-10-07 06:53:00
3:53 AM,62.1,59.0,90,29.84,10.0,ESE,10.4,-,N/A,,Scattered Clouds,110,2013-10-07 07:53:00
6:53 AM,64.0,60.1,87,29.80,10.0,SE,9.2,-,N/A,,Overcast,130,2013-10-07 10:53:00
7:53 AM,66.0,60.1,81,29.78,10.0,ESE,10.4,-,N/A,,Overcast,120,2013-10-07 11:53:00
8:53 AM,66.9,61.0,81,29.75,10.0,ESE,9.2,18.4,N/A,,Mostly Cloudy,110,2013-10-07 12:53:00
9:53 AM,70.0,62.1,76,29.71,10.0,ESE,15.0,-,N/A,,Partly Cloudy,120,2013-10-07 13:53:00
10:53 AM,73.0,61.0,66,29.69,10.0,SSE,23.0,33.4,N/A,,Scattered Clouds,160,2013-10-07 14:53:00
11:53 AM,73.0,62.1,68,29.67,10.0,SSE,15.0,21.9,N/A,,Overcast,150,2013-10-07 15:53:00
12:29 PM,63.0,57.9,84,29.72,9.0,West,28.8,48.3,0.00,Rain,Rain,270,2013-10-07 16:29:00
12:37 PM,61.0,57.9,90,29.70,2.5,WNW,15.0,36.8,0.07,Rain,Heavy Rain,290,2013-10-07 16:37:00
12:41 PM,60.1,59.0,96,29.71,1.8,West,11.5,27.6,0.10,Rain,Heavy Rain,280,2013-10-07 16:41:00
12:43 PM,60.1,59.0,96,29.71,1.8,WNW,11.5,27.6,0.10,Rain,Heavy Rain,290,2013-10-07 16:43:00
12:53 PM,59.0,57.9,96,29.70,1.5,WNW,13.8,-,0.18,Rain,Heavy Rain,300,2013-10-07 16:53:00
1:37 PM,57.9,55.9,93,29.71,2.0,West,8.1,-,0.35,Rain,Heavy Rain,280,2013-10-07 17:37:00
1:49 PM,57.2,57.2,100,29.72,1.8,West,9.2,-,0.42,Rain,Heavy Rain,270,2013-10-07 17:49:00
1:53 PM,57.9,57.0,97,29.73,1.8,WSW,10.4,-,0.44,Rain,Heavy Rain,250,2013-10-07 17:53:00
2:08 PM,57.9,57.0,97,29.73,2.0,WSW,5.8,-,0.08,Rain,Heavy Rain,250,2013-10-07 18:08:00
2:21 PM,57.9,57.0,97,29.71,3.0,WSW,6.9,-,0.12,Rain,Heavy Rain,250,2013-10-07 18:21:00
2:30 PM,57.9,57.0,97,29.72,3.0,WSW,6.9,-,0.14,Rain,Rain,250,2013-10-07 18:30:00
2:53 PM,57.9,57.0,97,29.73,6.0,West,8.1,-,0.16,Rain,Rain,260,2013-10-07 18:53:00
3:16 PM,57.9,57.0,97,29.75,2.5,WSW,10.4,17.3,0.05,Rain,Heavy Rain,250,2013-10-07 19:16:00
3:25 PM,57.0,55.0,93,29.76,2.0,West,17.3,23.0,0.09,Rain,Heavy Rain,270,2013-10-07 19:25:00
3:37 PM,55.0,52.0,89,29.77,3.0,WNW,20.7,29.9,0.13,Rain,Heavy Rain,290,2013-10-07 19:37:00
4:23 PM,54.0,52.0,93,29.80,3.0,West,12.7,-,0.04,Rain,Light Rain,280,2013-10-07 20:23:00
4:31 PM,54.0,52.0,93,29.80,4.0,West,8.1,-,0.04,Rain,Light Rain,280,2013-10-07 20:31:00
4:43 PM,54.0,52.0,93,29.80,10.0,West,9.2,-,0.04,,Overcast,280,2013-10-07 20:43:00
4:53 PM,54.0,52.0,93,29.80,10.0,WNW,8.1,-,0.04,,Overcast,290,2013-10-07 20:53:00
5:53 PM,55.0,52.0,89,29.83,10.0,Calm,Calm,-,N/A,,Scattered Clouds,0,2013-10-07 21:53:00
6:53 PM,54.0,52.0,93,29.86,10.0,Calm,Calm,-,N/A,,Clear,0,2013-10-07 22:53:00
8:53 PM,50.0,48.0,93,29.92,10.0,Calm,Calm,-,N/A,,Scattered Clouds,0,2013-10-08 00:53:00
9:53 PM,48.9,48.0,97,29.94,10.0,North,3.5,-,N/A,,Scattered Clouds,350,2013-10-08 01:53:00
10:53 PM,48.9,46.9,93,29.96,10.0,NW,3.5,-,N/A,,Partly Cloudy,310,2013-10-08 02:53:00
11:53 PM,51.1,46.0,83,29.97,10.0,West,6.9,-,N/A,,Partly Cloudy,270,2013-10-08 03:53:00